Location: Dehesa de la Cepeda
(40.6574°N, 4.3013°W)
Time: 18:59:07
(UTC+00:00)

Geosat - Pass Details

Date: 05 July 2020
Orbit: 763 x 766 km, 108.0° (Epoch: 05 August)

Event Time Altitude Azimuth Distance (km) Brightness Sun altitude
Exits shadow 20:14:48 - 138° (SE) 2,762 6.2 -4.6°
Reaches altitude 10° 20:15:58 10° 136° (SE) 2,294 5.8 -4.7°
Maximum altitude 20:20:50 55° 59° (ENE) 918 4.3 -5.5°
Drops below altitude 10° 20:25:44 10° 343° (NNW) 2,310 7.4 -6.2°
Sets 20:28:04 0° 339° (NNW) 3,240 8.4 -6.6°
